Other Public Products
Issued by NWS Charleston, SC

Current Version | Previous Version | Text Only | Print | Product List | Glossary Off
Versions: 1 2 3 4 5 6 7 8 9 10 11 12 13 14 15 16 17 18 19 20 21 22 23 24 25 26 27 28 29 30 31 32 33 34 35 36 37 38 39 40 41 42 43 44 45 46 47 48 49 50

377
FPUS82 KCHS 231612
OPUCHS

TEST...KCHS/KSAV Gateway Observations...TEST
National Weather Service Charleston SC
1200 PM EDT SUN JUL 23 2017

NOTE: "fair" indicates few or no clouds below 12,000 feet with no
significant weather and/or obstructions to visibility.

SCZ050-WAZ558-NCZ071-TXZ119-213-PAZ071-DCZ001-FLZ074-172-MI076-
NYZ176-178-MAZ016-IL014-TNZ027-NJZ106-GAZ044-MD014-231700-

...Gateway Observations for Charleston International...

CITY           SKY/WX    TMP DP  RH WIND       PRES   REMARKS
Chas Airport   MOSUNNY   89  76  65 SW7       29.94F HX 100
Seattle        CLOUDY    65  55  70 N12       30.10S
Charlotte      PTSUNNY   89  74  60 SW5       29.94R HX  98
Dallas DFW     MOSUNNY   91  76  61 S12       29.89S HX 103
Dallas Love    MOSUNNY   90  73  57 SW7       29.91R HX  98
Philladelphia  CLOUDY    82  71  69 E9        29.79S
Wash National  PTSUNNY   88  72  58 W12       29.81R HX  94
Baltimore      PTSUNNY   88  72  58 W6        29.79S HX  94
Miami          PTSUNNY   91  74  57 E8        30.07R HX 100
Detroit        PTSUNNY   80  67  64 VRB3      29.79F
Newark         PTSUNNY   79  68  69 SE8       29.80S
Laguardia      PTSUNNY   79  69  71 NE14      29.80S
J F K          PTSUNNY   79  69  71 SE9       29.82S
Boston Logan   PTSUNNY   70  57  63 E15       29.90R
Ft. Lauderdale MOSUNNY   89  74  60 SE10      30.06R HX  98
Chicago O`Hare MOSUNNY   86  65  49 VRB7      29.80S
Chicago Midway MOSUNNY   86  69  56 N9        29.79S HX  90
Houston Bush   PTSUNNY   89  75  63 SW12      29.97R HX  99
Houston Hobby  PTSUNNY   91  74  57 W13       29.96R HX 100
Nashville      PTSUNNY   88  74  63 NW6       29.93F HX  96
Atlanta        MOSUNNY   88  74  63 NW6       29.99F HX  96

$$

GAZ044-118-TXZ119-213-NCZ071-DCZ001-MDZ014-506-PAZ021-071-NJZ106-
NYZ176-178-MAZ106-OHZ011-021-055-MIZ076-KYZ091-ILZ014-INZ047-
MNZ060-ONZ431-231700-

...Gateway Observations for Savannah International...

CITY           SKY/WX    TMP DP  RH WIND       PRES   REMARKS
Savannah Arpt  MOSUNNY   89  76  65 W6        29.97F HX 100
Atlanta        MOSUNNY   88  74  63 NW6       29.99F HX  96
Charlotte      PTSUNNY   89  74  60 SW5       29.94R HX  98
Dallas DFW     MOSUNNY   91  76  61 S12       29.89S HX 103
Houston Bush   PTSUNNY   89  75  63 SW12      29.97R HX  99
Wash National  PTSUNNY   88  72  58 W12       29.81R HX  94
Wash Dulles    PTSUNNY   86  72  62 W9        29.81S HX  92
Baltimore      PTSUNNY   88  72  58 W6        29.79S HX  94
Philadelphia   CLOUDY    82  71  69 E9        29.79S
Newark         PTSUNNY   79  68  69 SE8       29.80S
Laguardia      PTSUNNY   79  69  71 NE14      29.80S
J F K          PTSUNNY   79  69  71 SE9       29.82S
Boston         PTSUNNY   70  57  63 E15       29.90R
Pittsburg      CLOUDY    80  72  76 SW9       29.83S
Akron          CLOUDY    82  71  69 W6        29.82S
Cleveland      PTSUNNY   83  71  67 W10       29.81S
Cincinnati     LGT RAIN  72  71  97 W15       29.89F
Columbus       CLOUDY    76  72  87 W12       29.85R
Detroit        PTSUNNY   80  67  64 VRB3      29.79F
Chicago O`Hare MOSUNNY   86  65  49 VRB7      29.80S
Minneapolis    PTSUNNY   74  59  59 NW12      29.92R
Indianapolis   CLOUDY    76  72  87 CALM      29.79F
Toronto Canada PTSUNNY   73  66  78 E10       29.79S

$$




USA.gov is the U.S. government's official web portal to all federal, state and local government web resources and services.